Location: Azul
(36.7830°S, 59.8500°W)
Time: 01:47:39
(UTC-03:00)

CAS-4A - Pass Details

Date: 31 October 2021
Orbit: 529 x 539 km, 43.0° (Epoch: 04 December)

Event Time Altitude Azimuth Distance (km) Brightness Sun altitude
Exits shadow 02:13:48 11° 119° (ESE) 1,747 ? -34.7°
Drops below altitude 10° 02:13:56 10° 118° (ESE) 1,795 ? -34.7°
Sets 02:16:20 0° 108° (ESE) 2,685 ? -34.5°
